TimeCST,TemperatureF,Dew PointF,Humidity,Sea Level PressureIn,VisibilityMPH,Wind Direction,Wind SpeedMPH,Gust SpeedMPH,PrecipitationIn,Events,Conditions,WindDirDegrees,DateUTC
12:53 AM,28.9,27.0,92,30.47,10.0,Calm,Calm,-,0.01,,Clear,0,2012-11-13 06:53:00
1:53 AM,28.0,26.1,92,30.48,10.0,Calm,Calm,-,0.01,,Clear,0,2012-11-13 07:53:00
2:53 AM,27.0,26.1,96,30.48,10.0,Calm,Calm,-,N/A,,Clear,0,2012-11-13 08:53:00
3:53 AM,27.0,26.1,96,30.48,10.0,Calm,Calm,-,N/A,,Clear,0,2012-11-13 09:53:00
4:53 AM,26.1,25.0,96,30.50,9.0,Calm,Calm,-,0.00,,Clear,0,2012-11-13 10:53:00
5:53 AM,25.0,24.1,96,30.51,10.0,Calm,Calm,-,N/A,,Clear,0,2012-11-13 11:53:00
6:53 AM,26.1,24.1,92,30.53,10.0,Calm,Calm,-,N/A,,Clear,0,2012-11-13 12:53:00
7:53 AM,32.0,30.0,92,30.55,10.0,Calm,Calm,-,0.03,,Clear,0,2012-11-13 13:53:00
8:53 AM,41.0,30.9,67,30.54,10.0,NNE,3.5,-,0.04,,Clear,30,2012-11-13 14:53:00
9:33 AM,44.6,28.4,53,30.52,10.0,NE,10.4,-,N/A,,Partly Cloudy,40,2012-11-13 15:33:00
9:53 AM,46.0,28.9,51,30.53,10.0,ENE,9.2,-,N/A,,Clear,60,2012-11-13 15:53:00
10:53 AM,48.0,28.0,46,30.51,10.0,NNE,10.4,19.6,N/A,,Clear,30,2012-11-13 16:53:00
11:53 AM,50.0,26.1,39,30.49,10.0,NNE,10.4,-,N/A,,Clear,30,2012-11-13 17:53:00
12:53 PM,51.1,26.1,38,30.46,10.0,North,6.9,-,N/A,,Clear,350,2012-11-13 18:53:00
1:53 PM,52.0,27.0,38,30.43,10.0,North,12.7,-,N/A,,Clear,360,2012-11-13 19:53:00
2:53 PM,51.1,26.1,38,30.42,10.0,NNE,11.5,-,N/A,,Clear,20,2012-11-13 20:53:00
3:53 PM,50.0,27.0,41,30.42,10.0,North,15.0,-,N/A,,Clear,10,2012-11-13 21:53:00
4:53 PM,44.1,27.0,51,30.42,10.0,North,6.9,-,N/A,,Clear,10,2012-11-13 22:53:00
5:53 PM,41.0,28.9,62,30.43,10.0,North,4.6,-,N/A,,Clear,10,2012-11-13 23:53:00
6:53 PM,42.1,28.0,58,30.43,10.0,NNE,5.8,-,N/A,,Clear,30,2012-11-14 00:53:00
7:53 PM,37.9,28.9,70,30.44,10.0,NE,5.8,-,N/A,,Clear,40,2012-11-14 01:53:00
8:53 PM,39.0,28.0,65,30.44,10.0,NE,4.6,-,N/A,,Clear,40,2012-11-14 02:53:00
9:53 PM,36.0,27.0,70,30.45,10.0,NNE,4.6,-,N/A,,Clear,20,2012-11-14 03:53:00
10:53 PM,35.1,28.0,76,30.43,10.0,NE,4.6,-,N/A,,Clear,40,2012-11-14 04:53:00
11:53 PM,36.0,27.0,70,30.42,10.0,NE,5.8,-,N/A,,Clear,50,2012-11-14 05:53:00